FW7275 Weather Reports


Display with metric or nautical units.
time (UTC)temp
F
wind
direction
speed
MPH
gust
MPH
rain 1hr
in
rain 24hr
in
rain mn
in
humidity
%
barometer
mb
20260902123033 80 0 0.0 0.0 0.00 0.00 0.00 52
20260902122025 80 0 0.0 0.0 0.00 0.00 0.00 52
20260902121023 77 0 0.0 0.0 0.00 0.00 0.00 54
20260902115028 78 0 0.0 0.0 0.00 0.00 0.00 52
20260902114021 78 0 0.0 0.0 0.00 0.00 0.00 54
20260902113028 78 0 0.0 0.0 0.00 0.00 0.00 54
20260902112023 78 0 0.0 0.0 0.00 0.00 0.00 54
20260902105026 76 0 0.0 0.0 0.00 0.00 0.00 59
20260902104031 76 0 0.0 0.0 0.00 0.00 0.00 59
20260902103033 77 0 0.0 0.0 0.00 0.00 0.00 58
20260902102020 77 0 0.0 0.0 0.00 0.00 0.00 57
20260902101021 77 0 0.0 0.0 0.00 0.00 0.00 57
20260902100037 77 0 0.0 0.0 0.00 0.00 0.00 57
20260902095032 78 0 0.0 0.0 0.00 0.00 0.00 57
20260902093034 76 0 0.0 0.0 0.00 0.00 0.00 59
20260902092035 76 0 0.0 0.0 0.00 0.00 0.00 59
20260902091030 76 0 0.0 0.0 0.00 0.00 0.00 59
20260902090034 76 0 0.0 0.0 0.00 0.00 0.00 61
20260902085025 74 0 0.0 0.0 0.00 0.00 0.00 63
20260902083026 74 0 0.0 0.0 0.00 0.00 0.00 63
20260902082028 74 0 0.0 0.0 0.00 0.00 0.00 63
20260902081019 74 0 0.0 0.0 0.00 0.00 0.00 63
20260902080036 74 0 0.0 0.0 0.00 0.00 0.00 64
20260902075034 75 0 0.0 0.0 0.00 0.00 0.00 63
20260902074027 68 0 0.0 0.0 0.00 0.00 0.00 75
20260902073036 68 0 0.0 0.0 0.00 0.00 0.00 75
20260902072022 68 0 0.0 0.0 0.00 0.00 0.00 75
20260902070041 68 0 0.0 0.0 0.00 0.00 0.00 75
20260902065023 68 0 0.0 0.0 0.00 0.00 0.00 75
20260902064020 68 0 0.0 0.0 0.00 0.00 0.00 75
20260902063027 55 0 0.0 0.0 0.00 0.00 0.00 89
20260902062030 55 0 0.0 0.0 0.00 0.00 0.00 89
20260902061024 55 0 0.0 0.0 0.00 0.00 0.00 89
20260902060033 54 0 0.0 0.0 0.00 0.00 0.00 89
20260902055033 54 0 0.0 0.0 0.00 0.00 0.00 89
20260902054027 52 0 0.0 0.0 0.00 0.00 0.00 90
20260902053035 52 0 0.0 0.0 0.00 0.00 0.00 90
20260902052034 52 0 0.0 0.0 0.00 0.00 0.00 90
20260902051028 52 0 0.0 0.0 0.00 0.00 0.00 90
20260902050036 52 0 0.0 0.0 0.00 0.00 0.00 90
20260902045032 52 0 0.0 0.0 0.00 0.00 0.00 90
20260902044024 52 0 0.0 0.0 0.00 0.00 0.00 89
20260902042026 52 0 0.0 0.0 0.00 0.00 0.00 89
20260902041024 52 0 0.0 0.0 0.00 0.00 0.00 89
20260902035026 52 0 0.0 0.0 0.00 0.00 0.00 89
20260902033030 53 0 0.0 0.0 0.00 0.00 0.00 89
20260902032033 53 0 0.0 0.0 0.00 0.00 0.00 89
20260902030036 53 0 0.0 0.0 0.00 0.00 0.00 89
20260902025032 53 0 0.0 0.0 0.00 0.00 0.00 88
20260902024032 54 0 0.0 0.0 0.00 0.00 0.00 88
20260902023029 54 0 0.0 0.0 0.00 0.00 0.00 88
20260902022028 54 0 0.0 0.0 0.00 0.00 0.00 88
20260902021022 54 0 0.0 0.0 0.00 0.00 0.00 88
20260902020032 54 0 0.0 0.0 0.00 0.00 0.00 88
20260902015025 54 0 0.0 0.0 0.00 0.00 0.00 88
20260902014033 54 0 0.0 0.0 0.00 0.00 0.00 88
20260902013020 55 0 0.0 0.0 0.00 0.00 0.00 88
20260902012022 55 0 0.0 0.0 0.00 0.00 0.00 87
20260902011026 55 0 0.0 0.0 0.00 0.00 0.00 87
20260902010026 56 0 0.0 0.0 0.00 0.00 0.00 87
20260902005030 56 0 0.0 0.0 0.00 0.00 0.00 87
20260902004023 56 0 0.0 0.0 0.00 0.00 0.00 86
20260902003030 56 0 0.0 0.0 0.00 0.00 0.00 86
20260902002021 56 0 0.0 0.0 0.00 0.00 0.00 86
20260902001032 57 0 0.0 0.0 0.00 0.00 0.00 86
20260902000040 57 0 0.0 0.0 0.00 0.00 0.00 86
20260901235034 57 0 0.0 0.0 0.00 0.00 0.00 85
20260901234028 57 0 0.0 0.0 0.00 0.00 0.00 85
20260901233037 57 0 0.0 0.0 0.00 0.00 0.00 85
20260901232029 57 0 0.0 0.0 0.00 0.00 0.00 85
20260901231032 57 0 0.0 0.0 0.00 0.00 0.00 84
20260901230043 58 0 0.0 0.0 0.00 0.00 0.00 84
20260901225027 58 0 0.0 0.0 0.00 0.00 0.00 84
20260901224031 58 0 0.0 0.0 0.00 0.00 0.00 84
20260901223027 59 0 0.0 0.0 0.00 0.00 0.00 83
20260901222033 59 0 0.0 0.0 0.00 0.00 0.00 83
20260901220039 60 0 0.0 0.0 0.00 0.00 0.00 82
20260901215028 60 0 0.0 0.0 0.00 0.00 0.00 81
20260901214025 60 0 0.0 0.0 0.00 0.00 0.00 81
20260901212031 61 0 0.0 0.0 0.00 0.00 0.00 80
20260901211030 61 0 0.0 0.0 0.00 0.00 0.00 80
20260901210041 62 0 0.0 0.0 0.00 0.00 0.00 79
20260901205021 62 0 0.0 0.0 0.00 0.00 0.00 79
20260901204026 63 0 0.0 0.0 0.00 0.00 0.00 78
20260901203031 63 0 0.0 0.0 0.00 0.00 0.00 77
20260901202031 63 0 0.0 0.0 0.00 0.00 0.00 77
20260901201030 64 0 0.0 0.0 0.00 0.00 0.00 76
20260901200035 64 0 0.0 0.0 0.00 0.00 0.00 76
20260901193034 64 0 0.0 0.0 0.00 0.00 0.00 73
20260901192027 65 0 0.0 0.0 0.00 0.00 0.00 73
20260901191025 65 0 0.0 0.0 0.00 0.00 0.00 73
20260901190033 67 0 0.0 0.0 0.00 0.00 0.00 70
20260901185030 67 0 0.0 0.0 0.00 0.00 0.00 70
20260901184031 70 0 0.0 0.0 0.00 0.00 0.00 65
20260901183027 70 0 0.0 0.0 0.00 0.00 0.00 65
20260901182028 70 0 0.0 0.0 0.00 0.00 0.00 65
20260901181026 70 0 0.0 0.0 0.00 0.00 0.00 65
20260901180040 70 0 0.0 0.0 0.00 0.00 0.00 65
20260901174031 72 0 0.0 0.0 0.00 0.00 0.00 60
20260901173036 73 0 0.0 0.0 0.00 0.00 0.00 57
20260901172024 74 0 0.0 0.0 0.00 0.00 0.00 55
20260901171024 76 0 0.0 0.0 0.00 0.00 0.00 51
20260901170037 77 0 0.0 0.0 0.00 0.00 0.00 49
20260901165030 77 0 0.0 0.0 0.00 0.00 0.00 47
20260901164033 77 0 0.0 0.0 0.00 0.00 0.00 46
20260901163039 78 0 0.0 0.0 0.00 0.00 0.00 46
20260901162029 80 0 0.0 0.0 0.00 0.00 0.00 44
20260901160044 79 0 0.0 0.0 0.00 0.00 0.00 45
20260901155027 79 0 0.0 0.0 0.00 0.00 0.00 45
20260901154026 79 0 0.0 0.0 0.00 0.00 0.00 44
20260901153038 78 0 0.0 0.0 0.00 0.00 0.00 45
20260901151025 80 0 0.0 0.0 0.00 0.00 0.00 43
20260901150039 80 0 0.0 0.0 0.00 0.00 0.00 43
20260901145027 80 0 0.0 0.0 0.00 0.00 0.00 43
20260901144027 80 0 0.0 0.0 0.00 0.00 0.00 43
20260901143035 80 0 0.0 0.0 0.00 0.00 0.00 43
20260901142031 80 0 0.0 0.0 0.00 0.00 0.00 44
20260901140041 80 0 0.0 0.0 0.00 0.00 0.00 43
20260901135026 82 0 0.0 0.0 0.00 0.00 0.00 42
20260901133027 81 0 0.0 0.0 0.00 0.00 0.00 43
20260901132030 81 0 0.0 0.0 0.00 0.00 0.00 44
20260901131028 83 0 0.0 0.0 0.00 0.00 0.00 42
20260901130051 83 0 0.0 0.0 0.00 0.00 0.00 42
20260901125032 82 0 0.0 0.0 0.00 0.00 0.00 43
20260901124027 81 0 0.0 0.0 0.00 0.00 0.00 43